Location: Boissy-le-Girard
(48.2753°N, 2.1313°E)
Time: 23:33:49
(UTC+00:00)

Daily predictions for brighter satellites

Satellite Brightness Start Highest point End
(mag) Time Altitude Azimuth Time Altitude Azimuth Time Altitude Azimuth
Cosmos 1733 3.1 17:51:19 10° S 17:55:00 61° E 17:58:43 10° NNE
MINOTAUR 4 R/B 3.9 17:56:11 10° NNE 17:59:40 79° ESE 18:03:08 10° S
Cosmos 540 Rocket 4.2 17:56:14 10° NNW 18:01:15 58° WSW 18:06:14 10° S
Cosmos 1766 4.0 17:57:56 10° SSE 18:01:26 32° E 18:04:59 10° NNE
Cosmos 1674 Rocket 3.7 17:58:27 10° N 18:02:49 55° ENE 18:07:10 10° SSE
Meteor 2-10 4.2 17:57:25 10° S 18:02:55 59° E 18:08:17 10° NNE
ATLAS 2AS CENTAUR R/B 4.5 17:59:44 10° WNW 18:05:47 25° N 18:11:34 10° NE
YAOGAN 1 2.9 18:02:34 10° SE 18:06:40 43° ENE 18:10:46 10° N
Cosmos 968 Rocket 4.3 18:03:27 10° SSE 18:07:55 29° E 18:12:24 10° NE
Okean O Rocket 2.1 18:06:28 10° SE 18:10:32 40° ENE 18:14:39 10° N
Cosmos 2084 4.3 18:08:19 10° WSW 18:11:58 43° NW 18:15:40 10° NNE
SAR-Lupe-3 4.5 18:08:58 10° SSE 18:12:31 83° ENE 18:16:07 10° NNW
Lacrosse 4 Rocket 3.1 18:10:41 10° SE 18:12:40 13° ESE 18:13:56 12° E
SKYMED 2 3.6 18:09:39 10° NNE 18:14:02 88° W 18:18:23 10° SSW
Meteor 2-5 Rocket 4.3 18:09:54 10° N 18:15:00 36° ENE 18:20:03 10° SE
Nadezhda 4 Rocket 4.2 18:09:18 10° SSE 18:15:22 51° E 18:21:26 10° NNE
USA-17 4.5 18:15:24 10° NW 18:18:37 81° NE 18:22:42 10° SE
Cosmos 2285 Rocket 4.0 18:15:05 10° NNW 18:21:26 67° ENE 18:27:47 10° SSE
PSLV R/B 3.9 18:19:07 10° S 18:22:47 73° WSW 18:26:28 10° NNW
Cosmos 1726 1.9 18:19:53 10° S 18:23:30 75° E 18:27:11 10° NNE
USA 186 3.5 18:22:42 16° E 18:23:40 18° ENE 18:25:59 10° NNE
Cosmos 2322 Rocket 3.1 18:19:08 10° SSE 18:23:44 26° ESE 18:28:21 10° NE
Cosmos 841 Rocket 4.3 18:23:00 10° NNW 18:28:02 53° WSW 18:33:01 10° S
Cosmos 1470 3.6 18:25:02 10° SSE 18:28:17 26° E 18:31:32 10° NNE
CZ-4B R/B 3.2 18:23:37 10° SSE 18:29:00 83° ENE 18:34:33 10° NNW
Cosmos 1378 Rocket 3.6 18:25:00 10° NNW 18:29:24 81° W 18:33:43 10° S
Cosmos 1980 Rocket 2.7 18:23:57 10° SW 18:29:33 65° WNW 18:35:10 10° NNE
Cosmos 1975 Rocket 4.0 18:26:39 10° NNE 18:30:27 27° ENE 18:33:08 16° ESE
Timation 2 Rocket 4.4 18:24:46 10° NW 18:31:09 65° WSW 18:37:13 10° SSE
ARGOS Delta rocket 3.9 18:26:03 10° NNE 18:31:21 76° ESE 18:36:18 10° S
Cosmos 2292 Rocket 3.8 18:33:29 10° SSE 18:38:22 47° E 18:42:09 10° NNE
Meteor 2-14 Rocket 4.5 18:34:10 10° S 18:40:14 87° W 18:46:20 10° N
Cosmos 1733 Rocket 4.3 18:38:17 10° SSW 18:42:34 45° WNW 18:46:52 10° N
USA 215 3.5 18:37:59 10° NE 18:44:29 71° NNW 18:50:59 10° WSW
COBE Rocket 4.2 18:42:26 10° S 18:47:15 68° W 18:51:59 10° NNW
Cosmos 1844 Rocket 3.0 18:44:08 10° NNW 18:49:37 47° NE 18:52:59 22° ESE
Cosmos 2278 3.9 18:47:15 10° SSW 18:52:56 75° WNW 18:58:39 10° NNE
SL-16 R/B 2.2 18:48:12 10° S 18:53:44 59° ESE 18:59:18 10° NE
Cosmos 1570 Rocket 4.0 18:49:43 10° NNW 18:55:01 86° WSW 19:00:15 10° SSE
Landsat 5 4.1 18:51:38 10° NNE 18:55:49 37° E 18:59:55 10° SSE
Cosmos 1092 Rocket 4.0 18:50:41 10° S 18:56:50 59° E 19:02:58 10° NNE
Resurs 01 Rocket 3.2 19:01:19 19° NE 19:01:19 19° NE 19:04:05 10° NNE
DMSP B5D1-3 4.4 18:56:07 10° NNE 19:01:15 85° ESE 19:06:23 10° SSW
Meteor 2-21 Rocket 4.5 18:56:53 10° S 19:02:56 83° W 19:09:02 10° N
SJ-6B 2.9 19:02:08 38° ESE 19:03:02 47° ENE 19:06:43 10° N
Cosmos 2278 Rocket 4.1 19:01:04 10° N 19:04:07 14° NNE 19:05:41 13° NE
Cosmos 1437 Rocket 2.7 19:02:08 10° SSW 19:05:52 80° W 19:09:37 10° N
H-2A R/B 3.9 19:07:12 20° NE 19:07:12 20° NE 19:09:19 10° NNE
Cosmos 2263 Rocket 3.9 19:03:31 10° NW 19:08:34 34° WSW 19:13:36 10° SSW
Meteor 1-24 Rocket 3.5 19:05:09 10° N 19:10:29 84° E 19:15:53 10° SSE
Resurs 1-3 3.9 19:11:26 40° E 19:12:12 44° ENE 19:16:22 10° N
SL-4 R/B 3.4 19:11:26 10° WNW 19:15:33 37° SW 19:17:52 22° SSE
Cosmos 2084 Rocket 3.2 19:15:01 10° NW 19:18:51 76° SW 19:19:51 48° SSE
USA 267 4.3 19:14:31 10° SSE 19:20:38 41° SW 19:26:47 10° WNW
Okean-O 2.5 19:20:29 42° SE 19:21:51 68° ENE 19:26:16 10° N
Cosmos 1486 Rocket 4.1 19:18:05 10° S 19:23:12 51° ESE 19:28:23 10° NNE
CZ-4 R/B 2.6 19:19:15 10° S 19:23:13 43° W 19:27:14 10° NNW
Cosmos 2208 Rocket 4.4 19:18:19 10° NNW 19:23:39 65° WSW 19:28:16 14° S
OBJECT-B 2.0 19:24:56 28° NNW 19:24:56 28° NNW 19:26:21 10° NNW
Cosmos 1844 3.6 19:18:39 10° NNW 19:24:13 69° ENE 19:26:12 40° SE
IGS 5A 3.3 19:24:37 48° SSE 19:25:44 80° ENE 19:29:53 10° N
DNEPR-1 R/B 3.9 19:22:38 10° SSW 19:27:14 62° ESE 19:30:36 23° NE
Meteor 1-22 Rocket 4.2 19:22:50 10° SSW 19:28:16 80° WNW 19:33:58 10° N
S3M 4.4 19:23:43 10° N 19:29:33 39° ENE 19:30:10 38° E
Cosmos 1300 Rocket 3.4 19:30:15 62° SE 19:30:40 66° E 19:35:00 10° NNE
Cosmos 773 Rocket 4.5 19:25:40 10° NNW 19:30:41 41° ENE 19:31:00 40° ENE
CSL-04 Debris 4.2 19:28:02 19° SSE 19:32:01 83° WSW 19:37:26 10° NNW
Cosmos 1627 Rocket 4.4 19:29:48 10° S 19:35:55 83° W 19:42:06 10° N
Cosmos 2360 Rocket 2.1 19:32:42 10° SSW 19:38:15 62° ESE 19:43:50 10° NNE
Cosmos 1782 Rocket 4.0 19:34:48 10° SSW 19:39:05 59° WNW 19:43:26 10° N
USA 81 4.2 19:33:50 10° N 19:39:07 74° W 19:43:22 16° S
Cosmos 1025 Rocket 3.4 19:38:54 10° NNW 19:43:11 61° W 19:44:51 34° SSW
Okean O Rocket 3.9 19:43:29 10° SSW 19:47:00 24° W 19:50:34 10° NW
Cosmos 1417 Rocket 4.4 19:44:01 10° N 19:50:08 65° ENE 19:51:03 57° ESE
Lacrosse 4 Rocket 1.6 19:46:34 10° SW 19:50:17 68° W 19:50:17 68° W
Cosmos 2026 Rocket 4.3 19:46:31 10° SSW 19:52:31 65° WNW 19:58:35 10° N
USA 186 3.5 19:55:51 33° W 19:55:51 33° W 19:58:49 10° NNW
CSL-04 Rocket 4.1 19:55:05 26° S 19:58:01 57° W 20:03:22 10° NNW
ATLAS 2AS CENTAUR R/B 4.1 19:53:03 10° NW 19:59:09 27° NNE 20:01:35 23° NE
MOS 1 4.2 20:01:33 69° ENE 20:01:36 69° ENE 20:07:15 10° N
Cosmos 1553 Rocket 4.1 19:57:33 10° NNW 20:03:56 79° W 20:06:33 38° S
Landsat 7 4.0 20:04:06 62° SW 20:04:29 65° WSW 20:09:12 10° NNW
deb Chang Zheng 4 4.3 20:05:56 45° NNW 20:05:56 45° NNW 20:08:52 10° NNW
SPOT 1/Viking Rocket 3.7 20:07:54 63° NNE 20:07:54 63° NNE 20:12:21 10° N
Cosmos 2322 Rocket 2.7 20:01:46 10° SW 20:07:23 59° WNW 20:13:03 10° NNE
NOSS 3-4 (A) 3.9 20:04:27 10° NW 20:11:10 59° NE 20:12:04 55° ENE
NOSS 3-4 (C) 3.9 20:04:34 10° NW 20:11:17 59° NE 20:12:10 55° ENE
Ariane Rocket 3.9 20:16:26 38° NNE 20:16:26 38° NNE 20:19:48 10° N
NOSS 3-3 (A) 3.9 20:15:27 10° SW 20:30:26 - NE 20:20:03 63° SW
NOSS 3-3 (C) 4.0 20:15:33 10° SW 20:30:32 - NE 20:19:58 59° SW
Aureole 1 Rocket 4.0 20:17:57 10° SSW 20:25:22 87° WNW 20:31:10 10° NNE
USA 215 4.1 20:24:15 29° NE 20:27:01 43° N 20:33:07 10° WNW
USA 281 4.0 20:27:40 38° NE 20:27:40 38° NE 20:33:05 10° NNW
Cosmos 1844 Rocket 4.0 20:28:20 10° NW 20:33:20 33° WSW 20:34:40 30° SW
Resurs 01 Rocket 3.3 20:38:53 32° NW 20:38:53 32° NW 20:41:25 10° NNW
SL-16 R/B 4.0 20:33:18 10° WSW 20:38:12 29° NW 20:43:09 10° NNE
Cosmos 2315 Rocket 4.3 20:32:51 10° N 20:37:56 57° NNE 20:37:56 57° NNE
Terra 4.1 20:42:43 16° N 20:42:43 16° N 20:43:47 10° N
Cosmos 1943 Rocket 4.1 20:36:27 10° N 20:38:59 18° NNE 20:38:59 18° NNE
Cosmos 2278 Rocket 3.4 20:44:00 10° NNW 20:47:32 36° N 20:47:32 36° N
Cosmos 2333 Rocket 4.4 21:18:31 17° NNE 21:18:31 17° NNE 21:19:50 10° NNE
Cosmos 2360 Rocket 4.0 21:17:52 10° WSW 21:22:40 28° NW 21:27:30 10° NNE
ATLAS 2AS CENTAUR R/B 3.8 21:44:27 10° NW 21:49:00 39° NNW 21:49:00 39° NNW
